www.pogodaiklimat.ru

Погода и климат >> Архив погоды >> Россия >> Ханты-Мансийский АО >> Леуши


ПОГОДА в Леушах

  • Прогноз погоды в Леушах
  • Монитор погоды в Леушах
  • Климат города

АРХИВ ПОГОДЫ в Леушах

Время (UTC), дата Ветер
(напр.,м/с)
 
Видим.   Явления Облачность Т
(С)
Тd
(С)
f
(%)
Тe
(С)
Тes
(С)
Комфортность P
(гПа)
Po
(гПа)
Тmin
(С)
Tmax
(С)
R
(мм)
S
(см)
03 16.03 Ю 1 50 км 10/10 600 м
[Sc]
-7.0 -12.6 64 -9 -9 1024.1 1014.9 -7.9 57
06 16.03 Ю 3 50 км 10/0
[Cs]
-2.5 -11.3 51 -7 -4 1023.7 1014.7
09 16.03 Ю 3 50 км 10/0
[Ci fib]
+2.7 -8.4 44 -1 +3 1022.8 1014.0
12 16.03 Ю 2 50 км 10/0
[Cc]
+2.3 -7.7 48 -0 +1 1022.5 1013.7
15 16.03 Ю 2
{10}
20 км 4/0
[Ci fib]
-1.3 -7.7 62 -5 -5 1023.2 1014.2 +3.1
18 16.03 Ю 2 20 км ясно -2.9 -8.6 65 -7 -7 1023.9 1014.8
21 16.03 Ю 1 20 км ясно -5.3 -9.0 75 -7 -7 1023.9 1014.8
00 17.03 Ю 2 20 км 10/0
[Ci fib]
-6.5 -9.2 81 -11 -11 1024.2 1015.1
03 17.03 Ю 1 50 км 10/0
[Ci sp]
-6.8 -9.6 80 -9 -9 1025.1 1015.9 -7.5 55
06 17.03 Ю 1 50 км 10/0
[Cc]
+0.3 -8.0 54 -1 +3 1025.0 1016.1
09 17.03 Ю 2 50 км ясно +4.4 -7.1 43 +2 +7 1024.5 1015.7
12 17.03 Ю 1 50 км ясно +4.4 -6.3 46 +4 +5 1024.4 1015.6
15 17.03 Ю 2 20 км ясно +0.1 -7.6 56 -3 -3 1025.2 1016.3 +5.5
18 17.03 Ю 1 20 км 10/0
[Ci fib]
-2.4 -8.4 63 -4 -4 1025.4 1016.4
21 17.03 Ю 1 20 км 10/0
[Ci fib]
-3.6 -9.0 66 -6 -6 1025.4 1016.4
00 18.03 Ю 1 20 км 10/0
[Ci fib]
-4.4 -8.7 72 -6 -6 1026.0 1016.9
03 18.03 Ю 1 50 км 10/0
[Cs]
-5.9 -9.4 76 -8 -7 1026.7 1017.6 -6.7 55
06 18.03 Ю 1 50 км 10/0
[Ci fib]
+2.1 -9.1 43 +1 +6 1026.6 1017.7
09 18.03 Ю 1 50 км 10/0
[As trans Cs]
+4.9 -9.6 34 +5 +8 1025.9 1017.1
12 18.03 Ю 2 50 км 10/0
[Ac As Cs]
+3.9 -10.1 35 +2 +3 1025.5 1016.7
15 18.03 Ю 3 20 км 10/1 600 м
[Sc Ac lent Ci fib]
-0.5 -11.0 45 -4 -4 1026.1 1017.1 +5.7
18 18.03 Ю 2 20 км 10/5 600 м
[Sc Ci fib]
-2.4 -12.3 47 -6 -6 1025.9 1016.9
21 18.03 Ю 1 20 км 10/5 600 м
[Sc Ci fib]
-4.9 -12.2 57 -7 -7 1026.1 1017.0
00 19.03 Ю 2 20 км 10/3 600 м
[Sc Ci fib]
-6.8 -13.8 57 -11 -11 1026.9 1017.7
03 19.03 Ю 2 50 км 10/1 600 м
[Sc Ci sp]
-7.3 -15.3 53 -11 -11 1027.6 1018.4 -7.6 55
06 19.03 Ю 2 50 км 10/0
[Cs]
-0.5 -14.8 33 -3 +1 1027.6 1018.6
09 19.03 Ю 2 50 км 10/0
[Ci sp]
+5.6 -14.0 23 +4 +8 1026.8 1018.0
12 19.03 Ю 2 50 км 10/0
[Ci fib]
+2.7 -12.7 31 +1 +2 1027.4 1018.5
15 19.03 Ю 3 20 км 3/0
[Ci fib]
-0.8 -15.3 32 -5 -5 1028.1 1019.1 +5.8
18 19.03 Ю 2 20 км 4/0
[Ci fib]
-2.7 -16.6 33 -6 -6 1028.0 1019.0
21 19.03 Ю 2 20 км 3/0
[Ci fib]
-5.2 -17.1 39 -9 -9 1028.8 1019.7
00 20.03 Ю 1 20 км 4/0
[Ci fib]
-7.1 -16.6 47 -9 -9 1029.2 1020.0
03 20.03 Ю 2 50 км 10/0
[Cs]
-5.7 -18.1 37 -9 -9 1029.9 1020.8 -7.2 55
06 20.03 Ю 2 50 км 10/0
[Cs]
-1.8 -17.8 28 -5 -1 1030.5 1021.4
09 20.03 Ю 3 50 км 10/0
[Ci fib]
+2.5 -17.2 22 -0 +3 1030.1 1021.2
12 20.03 Ю 3
{10}
50 км 10/0
[Ci sp]
+2.9 -16.8 22 0 +1 1029.7 1020.8
15 20.03 Ю 3 20 км 4/0
[Ci sp]
-1.0 -16.4 30 -5 -5 1030.5 1021.4 +3.2
18 20.03 Ю 3 20 км 4/0
[Ci fib]
-2.6 -16.1 35 -7 -7 1030.4 1021.3
21 20.03 Ю 2 20 км 4/0
[Ci fib]
-4.2 -18.0 33 -7 -7 1030.9 1021.8
00 21.03 Ю 2 20 км 10/0
[Ci fib]
-6.5 -19.2 36 -10 -10 1031.7 1022.5
03 21.03 Ю 2 50 км 10/0
[Cc]
-8.5 -17.9 47 -13 -12 1032.3 1023.0 -8.7 55
06 21.03 Ю 2 50 км 10/0
[Cc]
-0.0 -19.2 22 -2 +2 1032.1 1023.1
09 21.03 Ю 3 50 км 9/0
[Cc]
+2.4 -16.2 24 -1 +3 1031.3 1022.4
12 21.03 Ю 3 50 км 9/0
[Cc]
+2.1 -12.6 33 -1 -0 1031.2 1022.3
15 21.03 Ю 3 20 км 9/0
[Cc]
-1.1 -13.3 39 -5 -5 1031.3 1022.3 +2.9
18 21.03 Ю 2 20 км 10/0
[Ci fib]
-2.8 -13.8 42 -6 -6 1031.5 1022.4
21 21.03 Ю 2 20 км 10/0
[Ci fib]
-3.5 -14.4 43 -7 -7 1031.3 1022.2
00 22.03 Ю 2 20 км 10/0
[Ci fib]
-5.6 -14.8 48 -9 -9 1031.9 1022.7
03 22.03 Ю 1 50 км 10/3 600 м
[Sc Ci sp]
-6.2 -15.6 47 -8 -7 1032.0 1022.8 -6.8 55
06 22.03 Ю 3 50 км 10/0
[Ci sp]
+1.4 -15.9 26 -2 +2 1031.3 1022.3
09 22.03 Ю 2 50 км 10/3 600 м
[Sc Ac lent Ci sp]
+5.1 -11.3 29 +4 +5 1030.6 1021.8
12 22.03 Ю 3 50 км 10/0
[Ac lent Ci sp]
+4.0 -13.4 27 +1 +2 1029.9 1021.1
15 22.03 Ю 3 50 км 10/0
[Ac lent Ci sp]
+4.0 -13.4 27 +1 +1 1029.9 1021.1
18 22.03 Ю 2
{10}
20 км 10/9 600 м
[Sc As trans]
-0.1 -12.2 40 -3 -3 1029.0 1020.0
21 22.03 Ю 1 20 км 10/10 600 м
[Sc]
-2.1 -12.4 45 -4 -4 1029.3 1020.3

 

Местоположение метеостанции Леуши (Ханты-Мансийский АО, Россия): широта 59.63 долгота 65.72 высота над уровнем моря 72 м.

В архиве по умолчанию представлена погода в Леушах за последнюю неделю. Архивные данные за месяц целиком и за предыдущие месяцы, начиная с января 2011 года, Вы можете получить, выбрав интересующий диапазон дат из раскрывающегося списка и нажав кнопку "Ввод!".

Внимание! Время в таблицах - всемирное. Для получения местного времени необходимо прибавить поправку, которая в Леушах равна 5 ч.

Смотрите также архив погоды в соседних городах и на ближайших метеорологических станциях:

Погода в Кондинском (Ханты-Мансийский АО, Россия) (96 км)
Погода в Куминской (Ханты-Мансийский АО, Россия) (103 км)
Погода в Шаиме (Ханты-Мансийский АО, Россия) (113 км)
Погода в Таборах (Свердловская область, Россия) (141 км)
Погода в Тавде (Свердловская область, Россия) (175 км)
Погода в Увате (Тюменская область, Россия) (188 км)
Погода в Гари (Свердловская область, Россия) (192 км)
Погода в Алтае (Ханты-Мансийский АО, Россия) (197 км)
Погода в Демьянском (Тюменская область, Россия) (200 км)
Погода в Туринске (Свердловская область, Россия) (211 км)

Пояснения к столбцам:

Ветер - указаны скорость ветра в м/с - средняя за 10 мин, порывы в срок и между сроками (в фигурных скобках) и направление, откуда дует ветер: С - северный, СВ - северо-восточный, В - восточный, ЮВ - юго-восточный, Ю - южный, ЮЗ - юго-западный, З - западный, СЗ - северо-западный.
Видимость - горизонтальная дальность видимости в метрах или километрах. При видимости от 1 до 10 км при отсутствии осадков обычно наблюдается дымка, при ухудшении видимости до 1 км и менее - туман. В сухую погоду видимость может ухудшаться дымом, пылью или мглою.
Явления - указаны атмосферные явления, наблюдавшиеся в срок или в последний час перед сроком; фигурными скобками обозначены явления, наблюдавшиеся между сроками (за 1-3 часа до срока); квадратными скобками обозначены град или гололедные отложения с указанием их диаметра в мм.
Облачность - указаны через наклонную черту общая и нижняя облачность в баллах и высота нижней границы облаков в метрах; квадратными скобками обозначены формы облаков: Ci - перистые, Cs - перисто-слоистые, Cc - перисто-кучевые, Ac - высококучевые, As - высокослоистые, Sc - слоисто-кучевые, Ns - слоисто-дождевые, Cu - кучевые, Cb - кучево-дождевые. Подробнее классификацию облаков см. в Атласе облаков (PDF).
T - Температура воздуха - температура, измеренная на высоте 2 м над землей.
Td - Температура точки росы - температура, при понижении до которой содержащийся в воздухе водяной пар достигнет насыщения.
f - Относительная влажность воздуха - влажноcть воздуха, измеренная на высоте 2 м над землей.
Te - Эффективная температура - температура, которую ощущает одетый по сезону человек в тени. Характеристика душности погоды. При расчете учитывается влияние влажности воздуха и скорости ветра на теплоощущения человека.
Tes - Эффективная температура на солнце - температура, которую ощущает человек, с поправкой на солнечный нагрев. Характеристика знойности погоды. Зависит от высоты солнца над горизонтом, облачности и скорости ветра. Ночью, в пасмурную погоду, а также при ветре 12 м/с и более поправка равна нулю.
P - Атмосферное давление - приведенное к уровню моря атмосферное давление.
Po - Атмосферное давление - измеренное на уровне метеостанции атмосферное давление.
Tmin - Минимальная температура - минимум температуры воздуха на высоте 2 м над землей.
Tmax - Максимальная температура - максимум температуры воздуха на высоте 2 м над землей.
R - Количество осадков - Количество выпавших осадков, мм. При наведении курсора мыши на число - период времени, за который выпало указанное количество осадков.
S - Снежный покров - Высота снежного покрова, см. При наведении курсора мыши на число - состояние снежного покрова и степень покрытия местности в баллах.